Year,Month,Day,Hour,Minute,Value (Times are PST for windspeed in km/hr)
2011,06,24,00,00,20.20
2011,06,24,00,01,20.40
2011,06,24,00,02,21.60
2011,06,24,00,03,25.70
2011,06,24,00,04,15.10
2011,06,24,00,05,14.90
2011,06,24,00,06,12.60
2011,06,24,00,07,20.40
2011,06,24,00,08,16.90
2011,06,24,00,09,18.00
2011,06,24,00,10,23.10
2011,06,24,00,11,20.60
2011,06,24,00,12,19.20
2011,06,24,00,13,15.90
2011,06,24,00,14,17.00
2011,06,24,00,15,17.80
2011,06,24,00,16,16.90
2011,06,24,00,17,19.00
2011,06,24,00,18,15.80
2011,06,24,00,19,24.30
2011,06,24,00,20,13.40
2011,06,24,00,21,11.30
2011,06,24,00,22,17.10
2011,06,24,00,23,20.80
2011,06,24,00,24,24.20
2011,06,24,00,25,21.80
2011,06,24,00,26,17.10
2011,06,24,00,27,15.30
2011,06,24,00,28,15.90
2011,06,24,00,29,22.10
2011,06,24,00,30,15.50
2011,06,24,00,31,22.40
2011,06,24,00,32,21.70
2011,06,24,00,33,17.50
2011,06,24,00,34,15.90
2011,06,24,00,35,15.50
2011,06,24,00,36,18.30
2011,06,24,00,37,17.90
2011,06,24,00,38,16.40
2011,06,24,00,39,19.20
2011,06,24,00,40,21.40
2011,06,24,00,41,21.10
2011,06,24,00,42,17.50
2011,06,24,00,43,18.60
2011,06,24,00,44,16.30
2011,06,24,00,45,14.60
2011,06,24,00,46,16.60
2011,06,24,00,47,17.70
2011,06,24,00,48,18.80
2011,06,24,00,49,18.10
2011,06,24,00,50,11.20
2011,06,24,00,51,15.20
2011,06,24,00,52,15.50
2011,06,24,00,53,13.60
2011,06,24,00,54,16.50
2011,06,24,00,55,15.80
2011,06,24,00,56,18.50
2011,06,24,00,57,17.70
2011,06,24,00,58,9.70
2011,06,24,00,59,16.40
2011,06,24,01,00,14.30
2011,06,24,01,01,15.80
2011,06,24,01,02,19.10
2011,06,24,01,03,18.30
2011,06,24,01,04,21.30
2011,06,24,01,05,14.20
2011,06,24,01,06,17.60
2011,06,24,01,07,18.10
2011,06,24,01,08,12.10
2011,06,24,01,09,16.20
2011,06,24,01,10,17.80
2011,06,24,01,11,22.90
2011,06,24,01,12,19.40
2011,06,24,01,13,11.80
2011,06,24,01,14,5.90
2011,06,24,01,15,15.90
2011,06,24,01,16,13.60
2011,06,24,01,17,17.30
2011,06,24,01,18,17.30
2011,06,24,01,19,15.40
2011,06,24,01,20,17.20
2011,06,24,01,21,19.00
2011,06,24,01,22,11.30
2011,06,24,01,23,14.90
2011,06,24,01,24,12.70
2011,06,24,01,25,11.30
2011,06,24,01,26,10.00
2011,06,24,01,27,14.60
2011,06,24,01,28,18.90
2011,06,24,01,29,13.90
2011,06,24,01,30,13.60
2011,06,24,01,31,11.80
2011,06,24,01,32,16.00
2011,06,24,01,33,12.40
2011,06,24,01,34,7.50
2011,06,24,01,35,7.50
2011,06,24,01,36,10.40
2011,06,24,01,37,10.10
2011,06,24,01,38,7.20
2011,06,24,01,39,7.60
2011,06,24,01,40,8.90
2011,06,24,01,41,10.90
2011,06,24,01,42,8.60
2011,06,24,01,43,4.40
2011,06,24,01,44,1.90
2011,06,24,01,45,1.30
2011,06,24,01,46,0.20
2011,06,24,01,47,0.10
2011,06,24,01,48,2.00
2011,06,24,01,49,1.40
2011,06,24,01,50,0.10
2011,06,24,01,51,3.20
2011,06,24,01,52,0.40
2011,06,24,01,53,3.00
2011,06,24,01,54,6.50
2011,06,24,01,55,4.20
2011,06,24,01,56,0.30
2011,06,24,01,57,1.40
2011,06,24,01,58,1.10
2011,06,24,01,59,0.30
2011,06,24,02,00,0.40
2011,06,24,02,01,0.70
2011,06,24,02,02,0.80
2011,06,24,02,03,0.10
2011,06,24,02,04,4.70
2011,06,24,02,05,2.40
2011,06,24,02,06,0.00
2011,06,24,02,07,3.00
2011,06,24,02,08,2.50
2011,06,24,02,09,10.80
2011,06,24,02,10,7.30
2011,06,24,02,11,13.00
2011,06,24,02,12,7.40
2011,06,24,02,13,7.60
2011,06,24,02,14,4.90
2011,06,24,02,15,11.60
2011,06,24,02,16,13.40
2011,06,24,02,17,8.20
2011,06,24,02,18,5.60
2011,06,24,02,19,4.30
2011,06,24,02,20,9.30
2011,06,24,02,21,11.70
2011,06,24,02,22,14.20
2011,06,24,02,23,9.40
2011,06,24,02,24,11.30
2011,06,24,02,25,10.70
2011,06,24,02,26,7.60
2011,06,24,02,27,9.60
2011,06,24,02,28,5.60
2011,06,24,02,29,11.40
2011,06,24,02,30,6.40
2011,06,24,02,31,4.20
2011,06,24,02,32,8.50
2011,06,24,02,33,13.30
2011,06,24,02,34,8.00
2011,06,24,02,35,8.90
2011,06,24,02,36,12.60
2011,06,24,02,37,14.40
2011,06,24,02,38,9.10
2011,06,24,02,39,7.30
2011,06,24,02,40,6.60
2011,06,24,02,41,13.50
2011,06,24,02,42,2.70
2011,06,24,02,43,4.10
2011,06,24,02,44,3.10
2011,06,24,02,45,5.80
2011,06,24,02,46,4.90
2011,06,24,02,47,11.10
2011,06,24,02,48,9.00
2011,06,24,02,49,5.50
2011,06,24,02,50,1.40
2011,06,24,02,51,3.70
2011,06,24,02,52,3.50
2011,06,24,02,53,4.10
2011,06,24,02,54,1.10
2011,06,24,02,55,1.60
2011,06,24,02,56,2.20
2011,06,24,02,57,0.20
2011,06,24,02,58,0.20
2011,06,24,02,59,3.30
2011,06,24,03,00,3.70
2011,06,24,03,01,2.70
2011,06,24,03,02,2.00
2011,06,24,03,03,0.10
2011,06,24,03,04,0.50
2011,06,24,03,05,2.00
2011,06,24,03,06,0.60
2011,06,24,03,07,0.50
2011,06,24,03,08,0.20
2011,06,24,03,09,2.10
2011,06,24,03,10,0.80
2011,06,24,03,11,1.90
2011,06,24,03,12,5.00
2011,06,24,03,13,4.50
2011,06,24,03,14,4.10
2011,06,24,03,15,4.90
2011,06,24,03,16,5.30
2011,06,24,03,17,4.20
2011,06,24,03,18,4.50
2011,06,24,03,19,7.10
2011,06,24,03,20,4.40
2011,06,24,03,21,5.50
2011,06,24,03,22,6.80
2011,06,24,03,23,7.20
2011,06,24,03,24,6.60
2011,06,24,03,25,9.20
2011,06,24,03,26,9.40
2011,06,24,03,27,6.10
2011,06,24,03,28,6.70
2011,06,24,03,29,3.90
2011,06,24,03,30,4.30
2011,06,24,03,31,3.00
2011,06,24,03,32,4.00
2011,06,24,03,33,3.40
2011,06,24,03,34,4.10
2011,06,24,03,35,4.50
2011,06,24,03,36,3.90
2011,06,24,03,37,4.60
2011,06,24,03,38,0.90
2011,06,24,03,39,2.50
2011,06,24,03,40,2.70
2011,06,24,03,41,4.40
2011,06,24,03,42,2.70
2011,06,24,03,43,1.00
2011,06,24,03,44,1.50
2011,06,24,03,45,0.20
2011,06,24,03,46,0.10
2011,06,24,03,47,0.00
2011,06,24,03,48,0.30
2011,06,24,03,49,1.30
2011,06,24,03,50,1.60
2011,06,24,03,51,0.00
2011,06,24,03,52,0.00
2011,06,24,03,53,0.10
2011,06,24,03,54,0.20
2011,06,24,03,55,0.20
2011,06,24,03,56,0.00
2011,06,24,03,57,0.10
2011,06,24,03,58,0.00
2011,06,24,03,59,0.00
2011,06,24,04,00,0.00
2011,06,24,04,01,0.00
2011,06,24,04,02,0.00
2011,06,24,04,03,0.00
2011,06,24,04,04,0.10
2011,06,24,04,05,0.00
2011,06,24,04,06,0.00
2011,06,24,04,07,0.00
2011,06,24,04,08,0.00
2011,06,24,04,09,0.00
2011,06,24,04,10,0.00
2011,06,24,04,11,0.00
2011,06,24,04,12,0.00
2011,06,24,04,13,0.00
2011,06,24,04,14,0.00
2011,06,24,04,15,0.00
2011,06,24,04,16,0.00
2011,06,24,04,17,0.00
2011,06,24,04,18,1.50
2011,06,24,04,19,0.00
2011,06,24,04,20,0.00
2011,06,24,04,21,0.10
2011,06,24,04,22,0.10
2011,06,24,04,23,0.00
2011,06,24,04,24,0.30
2011,06,24,04,25,0.00
2011,06,24,04,26,0.00
2011,06,24,04,27,0.00
2011,06,24,04,28,0.00
2011,06,24,04,29,0.00
2011,06,24,04,30,0.10
2011,06,24,04,31,1.10
2011,06,24,04,32,1.40
2011,06,24,04,33,1.40
2011,06,24,04,34,0.10
2011,06,24,04,35,0.10
2011,06,24,04,36,0.50
2011,06,24,04,37,0.00
2011,06,24,04,38,0.10
2011,06,24,04,39,0.30
2011,06,24,04,40,1.30
2011,06,24,04,41,3.50
2011,06,24,04,42,2.00
2011,06,24,04,43,2.30
2011,06,24,04,44,1.00
2011,06,24,04,45,1.80
2011,06,24,04,46,2.80
2011,06,24,04,47,6.90
2011,06,24,04,48,4.60
2011,06,24,04,49,5.60
2011,06,24,04,50,6.40
2011,06,24,04,51,4.90
2011,06,24,04,52,4.20
2011,06,24,04,53,3.50
2011,06,24,04,54,7.20
2011,06,24,04,55,6.40
2011,06,24,04,56,12.60
2011,06,24,04,57,8.80
2011,06,24,04,58,8.90
2011,06,24,04,59,6.00
2011,06,24,05,00,5.60
2011,06,24,05,01,8.30
2011,06,24,05,02,6.30
2011,06,24,05,03,4.70
2011,06,24,05,04,5.90
2011,06,24,05,05,6.30
2011,06,24,05,06,6.00
2011,06,24,05,07,6.20
2011,06,24,05,08,8.30
2011,06,24,05,09,7.60
2011,06,24,05,10,5.20
2011,06,24,05,11,10.90
2011,06,24,05,12,7.20
2011,06,24,05,13,5.40
2011,06,24,05,14,7.80
2011,06,24,05,15,3.90
2011,06,24,05,16,7.60
2011,06,24,05,17,8.90
2011,06,24,05,18,9.20
2011,06,24,05,19,4.60
2011,06,24,05,20,4.90
2011,06,24,05,21,7.60
2011,06,24,05,22,7.30
2011,06,24,05,23,10.70
2011,06,24,05,24,9.50
2011,06,24,05,25,11.60
2011,06,24,05,26,7.20
2011,06,24,05,27,9.00
2011,06,24,05,28,11.30
2011,06,24,05,29,6.40
2011,06,24,05,30,5.40
2011,06,24,05,31,6.60
2011,06,24,05,32,7.40
2011,06,24,05,33,6.90
2011,06,24,05,34,7.10
2011,06,24,05,35,6.90
2011,06,24,05,36,3.00
2011,06,24,05,37,5.20
2011,06,24,05,38,11.50
2011,06,24,05,39,5.90
2011,06,24,05,40,3.80
2011,06,24,05,41,8.20
2011,06,24,05,42,6.70
2011,06,24,05,43,9.70
2011,06,24,05,44,10.80
2011,06,24,05,45,5.40
2011,06,24,05,46,4.10
2011,06,24,05,47,12.70
2011,06,24,05,48,6.80
2011,06,24,05,49,2.60
2011,06,24,05,50,3.10
2011,06,24,05,51,4.40
2011,06,24,05,52,3.50
2011,06,24,05,53,6.40
2011,06,24,05,54,6.10
2011,06,24,05,55,7.00
2011,06,24,05,56,3.10
2011,06,24,05,57,0.90
2011,06,24,05,58,0.10
2011,06,24,05,59,2.40
2011,06,24,06,00,1.90
2011,06,24,06,01,1.70
2011,06,24,06,02,1.80
2011,06,24,06,03,0.20
2011,06,24,06,04,0.00
2011,06,24,06,05,0.60
2011,06,24,06,06,2.80
2011,06,24,06,07,2.70
2011,06,24,06,08,4.60
2011,06,24,06,09,1.60
2011,06,24,06,10,0.30
2011,06,24,06,11,0.20
2011,06,24,06,12,3.80
2011,06,24,06,13,3.00
2011,06,24,06,14,1.00
2011,06,24,06,15,3.20
2011,06,24,06,16,3.70
2011,06,24,06,17,0.90
2011,06,24,06,18,0.90
2011,06,24,06,19,1.00
2011,06,24,06,20,0.00
2011,06,24,06,21,1.00
2011,06,24,06,22,5.90
2011,06,24,06,23,5.60
2011,06,24,06,24,7.20
2011,06,24,06,25,6.20
2011,06,24,06,26,6.00
2011,06,24,06,27,5.10
2011,06,24,06,28,4.20
2011,06,24,06,29,2.40
2011,06,24,06,30,3.90
2011,06,24,06,31,5.00
2011,06,24,06,32,6.50
2011,06,24,06,33,6.20
2011,06,24,06,34,3.60
2011,06,24,06,35,1.30
2011,06,24,06,36,0.50
2011,06,24,06,37,1.80
2011,06,24,06,38,0.90
2011,06,24,06,39,0.30
2011,06,24,06,40,3.20
2011,06,24,06,41,1.90
2011,06,24,06,42,0.80
2011,06,24,06,43,2.90
2011,06,24,06,44,4.70
2011,06,24,06,45,4.90
2011,06,24,06,46,5.10
2011,06,24,06,47,3.50
2011,06,24,06,48,3.80
2011,06,24,06,49,2.90
2011,06,24,06,50,0.80
2011,06,24,06,51,0.10
2011,06,24,06,52,0.50
2011,06,24,06,53,0.20
2011,06,24,06,54,0.10
2011,06,24,06,55,0.50
2011,06,24,06,56,0.80
2011,06,24,06,57,1.30
2011,06,24,06,58,2.30
2011,06,24,06,59,1.20
2011,06,24,07,00,1.40
2011,06,24,07,01,1.30
2011,06,24,07,02,0.00
2011,06,24,07,03,0.60
2011,06,24,07,04,4.60
2011,06,24,07,05,3.60
2011,06,24,07,06,8.00
2011,06,24,07,07,8.90
2011,06,24,07,08,5.30
2011,06,24,07,09,3.90
2011,06,24,07,10,8.10
2011,06,24,07,11,5.80
2011,06,24,07,12,4.90
2011,06,24,07,13,8.40
2011,06,24,07,14,3.90
2011,06,24,07,15,5.10
2011,06,24,07,16,1.10
2011,06,24,07,17,2.20
2011,06,24,07,18,0.00
2011,06,24,07,19,0.00
2011,06,24,07,20,0.00
2011,06,24,07,21,1.20
2011,06,24,07,22,2.10
2011,06,24,07,23,1.80
2011,06,24,07,24,1.30
2011,06,24,07,25,1.60
2011,06,24,07,26,4.90
2011,06,24,07,27,5.10
2011,06,24,07,28,1.50
2011,06,24,07,29,3.20
2011,06,24,07,30,2.30
2011,06,24,07,31,2.10
2011,06,24,07,32,1.30
2011,06,24,07,33,0.30
2011,06,24,07,34,2.00
2011,06,24,07,35,2.50
2011,06,24,07,36,1.80
2011,06,24,07,37,1.00
2011,06,24,07,38,5.20
2011,06,24,07,39,3.30
2011,06,24,07,40,0.60
2011,06,24,07,41,0.20
2011,06,24,07,42,0.10
2011,06,24,07,43,0.00
2011,06,24,07,44,0.00
2011,06,24,07,45,0.00
2011,06,24,07,46,0.00
2011,06,24,07,47,0.90
2011,06,24,07,48,0.10
2011,06,24,07,49,1.80
2011,06,24,07,50,2.50
2011,06,24,07,51,0.10
2011,06,24,07,52,0.00
2011,06,24,07,53,0.00
2011,06,24,07,54,0.10
2011,06,24,07,55,0.10
2011,06,24,07,56,1.50
2011,06,24,07,57,3.50
2011,06,24,07,58,4.30
2011,06,24,07,59,3.60
2011,06,24,08,00,5.10
2011,06,24,08,01,2.80
2011,06,24,08,02,0.10
2011,06,24,08,03,1.40
2011,06,24,08,04,1.70
2011,06,24,08,05,0.10
2011,06,24,08,06,0.40
2011,06,24,08,07,3.10
2011,06,24,08,08,2.60
2011,06,24,08,09,1.10
2011,06,24,08,10,1.40
2011,06,24,08,11,0.10
2011,06,24,08,12,1.40
2011,06,24,08,13,4.20
2011,06,24,08,14,2.30
2011,06,24,08,15,1.80
2011,06,24,08,16,3.50
2011,06,24,08,17,3.80
2011,06,24,08,18,4.70
2011,06,24,08,19,5.60
2011,06,24,08,20,5.10
2011,06,24,08,21,5.80
2011,06,24,08,22,4.30
2011,06,24,08,23,3.40
2011,06,24,08,24,3.80
2011,06,24,08,25,4.10
2011,06,24,08,26,1.10
2011,06,24,08,27,0.00
2011,06,24,08,28,2.20
2011,06,24,08,29,3.90
2011,06,24,08,30,1.20
2011,06,24,08,31,0.10
2011,06,24,08,32,0.00
2011,06,24,08,33,1.10
2011,06,24,08,34,0.90
2011,06,24,08,35,0.20
2011,06,24,08,36,0.00
2011,06,24,08,37,0.00
2011,06,24,08,38,0.00
2011,06,24,08,39,0.00
2011,06,24,08,40,0.00
2011,06,24,08,41,0.50
2011,06,24,08,42,1.90
2011,06,24,08,43,1.90
2011,06,24,08,44,0.40
2011,06,24,08,45,2.00
2011,06,24,08,46,4.80
2011,06,24,08,47,3.00
2011,06,24,08,48,2.50
2011,06,24,08,49,2.60
2011,06,24,08,50,1.90
2011,06,24,08,51,1.40
2011,06,24,08,52,1.00
2011,06,24,08,53,0.40
2011,06,24,08,54,2.30
2011,06,24,08,55,2.80
2011,06,24,08,56,3.10
2011,06,24,08,57,3.60
2011,06,24,08,58,3.40
2011,06,24,08,59,3.00
2011,06,24,09,00,3.10
2011,06,24,09,01,1.60
2011,06,24,09,02,3.30
2011,06,24,09,03,4.20
2011,06,24,09,04,4.00
2011,06,24,09,05,4.00
2011,06,24,09,06,4.00
2011,06,24,09,07,4.00
2011,06,24,09,08,3.70
2011,06,24,09,09,3.50
2011,06,24,09,10,2.70
2011,06,24,09,11,3.50
2011,06,24,09,12,5.80
2011,06,24,09,13,5.20
2011,06,24,09,14,3.70
2011,06,24,09,15,4.60
2011,06,24,09,16,2.60
2011,06,24,09,17,3.70
2011,06,24,09,18,4.70
2011,06,24,09,19,6.20
2011,06,24,09,20,4.80
2011,06,24,09,21,6.80
2011,06,24,09,22,5.90
2011,06,24,09,23,5.90
2011,06,24,09,24,6.40
2011,06,24,09,25,3.80
2011,06,24,09,26,5.00
2011,06,24,09,27,4.60
2011,06,24,09,28,5.70
2011,06,24,09,29,5.00
2011,06,24,09,30,5.20
2011,06,24,09,31,4.70
2011,06,24,09,32,4.80
2011,06,24,09,33,6.50
2011,06,24,09,34,5.10
2011,06,24,09,35,6.00
2011,06,24,09,36,5.70
2011,06,24,09,37,6.40
2011,06,24,09,38,3.20
2011,06,24,09,39,3.80
2011,06,24,09,40,4.30
2011,06,24,09,41,4.60
2011,06,24,09,42,4.80
2011,06,24,09,43,3.90
2011,06,24,09,44,4.70
2011,06,24,09,45,4.60
2011,06,24,09,46,4.30
2011,06,24,09,47,5.70
2011,06,24,09,48,5.50
2011,06,24,09,49,4.70
2011,06,24,09,50,6.00
2011,06,24,09,51,7.00
2011,06,24,09,52,3.70
2011,06,24,09,53,3.90
2011,06,24,09,54,6.30
2011,06,24,09,55,5.10
2011,06,24,09,56,3.70
2011,06,24,09,57,3.00
2011,06,24,09,58,2.50
2011,06,24,09,59,6.00
2011,06,24,10,00,6.00
2011,06,24,10,01,6.00
2011,06,24,10,02,5.70
2011,06,24,10,03,5.40
2011,06,24,10,04,4.60
2011,06,24,10,05,3.00
2011,06,24,10,06,3.20
2011,06,24,10,07,3.50
2011,06,24,10,08,2.50
2011,06,24,10,09,4.50
2011,06,24,10,10,6.00
2011,06,24,10,11,5.60
2011,06,24,10,12,7.30
2011,06,24,10,13,6.90
2011,06,24,10,14,7.20
2011,06,24,10,15,4.50
2011,06,24,10,16,3.00
2011,06,24,10,17,3.90
2011,06,24,10,18,3.90
2011,06,24,10,19,3.00
2011,06,24,10,20,3.90
2011,06,24,10,21,3.40
2011,06,24,10,22,4.00
2011,06,24,10,23,2.70
2011,06,24,10,24,3.20
2011,06,24,10,25,4.90
2011,06,24,10,26,5.40
2011,06,24,10,27,1.20
2011,06,24,10,28,4.40
2011,06,24,10,29,3.80
2011,06,24,10,30,4.70
2011,06,24,10,31,4.90
2011,06,24,10,32,4.30
2011,06,24,10,33,5.40
2011,06,24,10,34,3.40
2011,06,24,10,35,3.70
2011,06,24,10,36,4.50
2011,06,24,10,37,3.80
2011,06,24,10,38,3.60
2011,06,24,10,39,4.40
2011,06,24,10,40,5.60
2011,06,24,10,41,3.20
2011,06,24,10,42,5.50
2011,06,24,10,43,5.80
2011,06,24,10,44,6.10
2011,06,24,10,45,4.10
2011,06,24,10,46,4.80
2011,06,24,10,47,5.00
2011,06,24,10,48,4.70
2011,06,24,10,49,5.00
2011,06,24,10,50,5.80
2011,06,24,10,51,5.00
2011,06,24,10,52,2.30
2011,06,24,10,53,2.70
2011,06,24,10,54,2.60
2011,06,24,10,55,5.60
2011,06,24,10,56,7.30
2011,06,24,10,57,5.10
2011,06,24,10,58,2.70
2011,06,24,10,59,2.40
2011,06,24,11,00,3.90
2011,06,24,11,01,4.70
2011,06,24,11,02,5.90
2011,06,24,11,03,5.10
2011,06,24,11,04,6.00
2011,06,24,11,05,3.30
2011,06,24,11,06,3.10
2011,06,24,11,07,1.00
2011,06,24,11,08,2.50
2011,06,24,11,09,1.40
2011,06,24,11,10,3.10
2011,06,24,11,11,1.90
2011,06,24,11,12,2.20
2011,06,24,11,13,2.50
2011,06,24,11,14,3.60
2011,06,24,11,15,4.70
2011,06,24,11,16,3.00
2011,06,24,11,17,2.30
2011,06,24,11,18,1.10
2011,06,24,11,19,5.20
2011,06,24,11,20,5.30
2011,06,24,11,21,5.00
2011,06,24,11,22,5.70
2011,06,24,11,23,4.40
2011,06,24,11,24,1.70
2011,06,24,11,25,7.20
2011,06,24,11,26,6.70
2011,06,24,11,27,7.00
2011,06,24,11,28,5.70
2011,06,24,11,29,6.70
2011,06,24,11,30,3.90
2011,06,24,11,31,5.70
2011,06,24,11,32,5.40
2011,06,24,11,33,5.80
2011,06,24,11,34,6.80
2011,06,24,11,35,5.80
2011,06,24,11,36,6.20
2011,06,24,11,37,3.90
2011,06,24,11,38,5.70
2011,06,24,11,39,2.50
2011,06,24,11,40,3.60
2011,06,24,11,41,4.10
2011,06,24,11,42,2.20
2011,06,24,11,43,5.00
2011,06,24,11,44,6.70
2011,06,24,11,45,5.70
2011,06,24,11,46,6.40
2011,06,24,11,47,5.90
2011,06,24,11,48,5.10
2011,06,24,11,49,4.50
2011,06,24,11,50,4.20
2011,06,24,11,51,2.60
2011,06,24,11,52,3.00
2011,06,24,11,53,2.70
2011,06,24,11,54,3.50
2011,06,24,11,55,3.50
2011,06,24,11,56,2.10
2011,06,24,11,57,5.90
2011,06,24,11,58,5.80
2011,06,24,11,59,4.90
2011,06,24,12,00,4.90
2011,06,24,12,01,5.30
2011,06,24,12,02,8.60
2011,06,24,12,03,9.00
2011,06,24,12,04,8.50
2011,06,24,12,05,8.80
2011,06,24,12,06,7.80
2011,06,24,12,07,6.60
2011,06,24,12,08,6.40
2011,06,24,12,09,10.30
2011,06,24,12,10,7.90
2011,06,24,12,11,9.90
2011,06,24,12,12,10.40
2011,06,24,12,13,8.00
2011,06,24,12,14,10.10
2011,06,24,12,15,9.80
2011,06,24,12,16,8.40
2011,06,24,12,17,6.90
2011,06,24,12,18,4.30
2011,06,24,12,19,4.40
2011,06,24,12,20,5.10
2011,06,24,12,21,4.30
2011,06,24,12,22,4.80
2011,06,24,12,23,6.80
2011,06,24,12,24,4.80
2011,06,24,12,25,7.20
2011,06,24,12,26,8.90
2011,06,24,12,27,9.60
2011,06,24,12,28,9.30
2011,06,24,12,29,10.20
2011,06,24,12,30,14.20
2011,06,24,12,31,12.50
2011,06,24,12,32,10.30
2011,06,24,12,33,11.20
2011,06,24,12,34,8.50
2011,06,24,12,35,7.10
2011,06,24,12,36,6.00
2011,06,24,12,37,7.90
2011,06,24,12,38,5.90
2011,06,24,12,39,9.40
2011,06,24,12,40,8.30
2011,06,24,12,41,13.00
2011,06,24,12,42,12.50
2011,06,24,12,43,10.20
2011,06,24,12,44,11.00
2011,06,24,12,45,10.30
2011,06,24,12,46,7.30
2011,06,24,12,47,6.60
2011,06,24,12,48,8.00
2011,06,24,12,49,8.90
2011,06,24,12,50,4.80
2011,06,24,12,51,7.50
2011,06,24,12,52,6.90
2011,06,24,12,53,7.40
2011,06,24,12,54,8.00
2011,06,24,12,55,6.30
2011,06,24,12,56,5.90
2011,06,24,12,57,6.60
2011,06,24,12,58,8.40
2011,06,24,12,59,10.10
2011,06,24,13,00,9.00
2011,06,24,13,01,10.30
2011,06,24,13,02,9.80
2011,06,24,13,03,9.70
2011,06,24,13,04,7.30
2011,06,24,13,05,6.40
2011,06,24,13,06,10.30
2011,06,24,13,07,8.50
2011,06,24,13,08,10.00
2011,06,24,13,09,6.20
2011,06,24,13,10,7.40
2011,06,24,13,11,5.70
2011,06,24,13,12,5.60
2011,06,24,13,13,4.10
2011,06,24,13,14,7.30
2011,06,24,13,15,6.70
2011,06,24,13,16,7.40
2011,06,24,13,17,9.90
2011,06,24,13,18,7.20
2011,06,24,13,19,9.90
2011,06,24,13,20,8.50
2011,06,24,13,21,7.20
2011,06,24,13,22,5.10
2011,06,24,13,23,4.10
2011,06,24,13,24,7.70
2011,06,24,13,25,4.90
2011,06,24,13,26,5.80
2011,06,24,13,27,3.50
2011,06,24,13,28,4.80
2011,06,24,13,29,4.80
2011,06,24,13,30,4.20
2011,06,24,13,31,4.70
2011,06,24,13,32,3.80
2011,06,24,13,33,2.30
2011,06,24,13,34,7.10
2011,06,24,13,35,6.10
2011,06,24,13,36,7.70
2011,06,24,13,37,8.10
2011,06,24,13,38,6.60
2011,06,24,13,39,6.50
2011,06,24,13,40,2.20
2011,06,24,13,41,1.90
2011,06,24,13,42,2.90
2011,06,24,13,43,1.70
2011,06,24,13,44,2.20
2011,06,24,13,45,1.80
2011,06,24,13,46,0.70
2011,06,24,13,47,0.00
2011,06,24,13,48,1.40
2011,06,24,13,49,1.20
2011,06,24,13,50,1.60
2011,06,24,13,51,2.00
2011,06,24,13,52,1.50
2011,06,24,13,53,2.10
2011,06,24,13,54,3.00
2011,06,24,13,55,1.70
2011,06,24,13,56,1.20
2011,06,24,13,57,1.90
2011,06,24,13,58,1.10
2011,06,24,13,59,0.10
2011,06,24,14,00,0.90
2011,06,24,14,01,0.70
2011,06,24,14,02,1.30
2011,06,24,14,03,2.10
2011,06,24,14,04,0.20
2011,06,24,14,05,1.00
2011,06,24,14,06,2.50
2011,06,24,14,07,2.40
2011,06,24,14,08,2.80
2011,06,24,14,09,3.50
2011,06,24,14,10,1.80
2011,06,24,14,11,1.50
2011,06,24,14,12,2.30
2011,06,24,14,13,1.00
2011,06,24,14,14,1.30
2011,06,24,14,15,3.40
2011,06,24,14,16,3.90
2011,06,24,14,17,0.70
2011,06,24,14,18,3.10
2011,06,24,14,19,3.60
2011,06,24,14,20,3.10
2011,06,24,14,21,3.80
2011,06,24,14,22,2.70
2011,06,24,14,23,0.50
2011,06,24,14,24,2.10
2011,06,24,14,25,2.00
2011,06,24,14,26,1.90
2011,06,24,14,27,3.20
2011,06,24,14,28,1.90
2011,06,24,14,29,4.00
2011,06,24,14,30,4.00
2011,06,24,14,31,2.40
2011,06,24,14,32,1.00
2011,06,24,14,33,1.00
2011,06,24,14,34,3.00
2011,06,24,14,35,2.40
2011,06,24,14,36,1.30
2011,06,24,14,37,3.80
2011,06,24,14,38,3.00
2011,06,24,14,39,1.00
2011,06,24,14,40,1.40
2011,06,24,14,41,2.80
2011,06,24,14,42,0.60
2011,06,24,14,43,1.40
2011,06,24,14,44,1.10
2011,06,24,14,45,0.60
2011,06,24,14,46,1.60
2011,06,24,14,47,0.60
2011,06,24,14,48,2.40
2011,06,24,14,49,1.60
2011,06,24,14,50,0.30
2011,06,24,14,51,0.10
2011,06,24,14,52,0.20
2011,06,24,14,53,5.10
2011,06,24,14,54,4.70
2011,06,24,14,55,5.30
2011,06,24,14,56,5.50
2011,06,24,14,57,5.80
2011,06,24,14,58,9.00
2011,06,24,14,59,15.70
2011,06,24,15,00,13.20
2011,06,24,15,01,8.20
2011,06,24,15,02,10.90
2011,06,24,15,03,5.20
2011,06,24,15,04,2.70
2011,06,24,15,05,2.40
2011,06,24,15,06,1.50
2011,06,24,15,07,1.00
2011,06,24,15,08,1.50
2011,06,24,15,09,0.00
2011,06,24,15,10,0.00
2011,06,24,15,11,0.10
2011,06,24,15,12,2.40
2011,06,24,15,13,6.30
2011,06,24,15,14,6.80
2011,06,24,15,15,5.40
2011,06,24,15,16,3.50
2011,06,24,15,17,6.80
2011,06,24,15,18,7.20
2011,06,24,15,19,7.20
2011,06,24,15,20,6.30
2011,06,24,15,21,5.30
2011,06,24,15,22,4.30
2011,06,24,15,23,5.00
2011,06,24,15,24,4.30
2011,06,24,15,25,4.20
2011,06,24,15,26,4.20
2011,06,24,15,27,6.00
2011,06,24,15,28,7.20
2011,06,24,15,29,6.00
2011,06,24,15,30,8.60
2011,06,24,15,31,9.30
2011,06,24,15,32,6.30
2011,06,24,15,33,3.90
2011,06,24,15,34,2.60
2011,06,24,15,35,2.30
2011,06,24,15,36,2.30
2011,06,24,15,37,2.80
2011,06,24,15,38,1.50
2011,06,24,15,39,3.50
2011,06,24,15,40,4.40
2011,06,24,15,41,2.50
2011,06,24,15,42,4.80
2011,06,24,15,43,6.00
2011,06,24,15,44,7.50
2011,06,24,15,45,6.70
2011,06,24,15,46,5.30
2011,06,24,15,47,4.40
2011,06,24,15,48,3.00
2011,06,24,15,49,4.00
2011,06,24,15,50,2.20
2011,06,24,15,51,1.80
2011,06,24,15,52,0.80
2011,06,24,15,53,1.40
2011,06,24,15,54,3.70
2011,06,24,15,55,5.30
2011,06,24,15,56,2.90
2011,06,24,15,57,3.80
2011,06,24,15,58,4.30
2011,06,24,15,59,0.80
2011,06,24,16,00,1.70
2011,06,24,16,01,0.10
2011,06,24,16,02,0.00
2011,06,24,16,03,0.00
2011,06,24,16,04,1.30
2011,06,24,16,05,0.00
2011,06,24,16,06,0.80
2011,06,24,16,07,1.80
2011,06,24,16,08,0.30
2011,06,24,16,09,1.70
2011,06,24,16,10,0.20
2011,06,24,16,11,0.50
2011,06,24,16,12,1.30
2011,06,24,16,13,0.10
2011,06,24,16,14,0.00
2011,06,24,16,15,0.90
2011,06,24,16,16,0.60
2011,06,24,16,17,2.00
2011,06,24,16,18,1.60
2011,06,24,16,19,4.00
2011,06,24,16,20,3.40
2011,06,24,16,21,4.20
2011,06,24,16,22,4.10
2011,06,24,16,23,2.10
2011,06,24,16,24,1.40
2011,06,24,16,25,2.50
2011,06,24,16,26,1.00
2011,06,24,16,27,0.60
2011,06,24,16,28,0.80
2011,06,24,16,29,2.30
2011,06,24,16,30,0.60
2011,06,24,16,31,1.50
2011,06,24,16,32,1.00
2011,06,24,16,33,3.10
2011,06,24,16,34,0.40
2011,06,24,16,35,2.40
2011,06,24,16,36,0.10
2011,06,24,16,37,0.00
2011,06,24,16,38,1.70
2011,06,24,16,39,0.50
2011,06,24,16,40,0.10
2011,06,24,16,41,2.60
2011,06,24,16,42,3.10
2011,06,24,16,43,2.30
2011,06,24,16,44,1.90
2011,06,24,16,45,3.80
2011,06,24,16,46,4.10
2011,06,24,16,47,2.70
2011,06,24,16,48,5.30
2011,06,24,16,49,3.10
2011,06,24,16,50,3.50
2011,06,24,16,51,3.40
2011,06,24,16,52,1.20
2011,06,24,16,53,0.20
2011,06,24,16,54,0.20
2011,06,24,16,55,0.00
2011,06,24,16,56,0.60
2011,06,24,16,57,1.30
2011,06,24,16,58,0.00
2011,06,24,16,59,0.00
2011,06,24,17,00,0.10
2011,06,24,17,01,0.00
2011,06,24,17,02,0.00
2011,06,24,17,03,0.20
2011,06,24,17,04,0.00
2011,06,24,17,05,0.00
2011,06,24,17,06,0.20
2011,06,24,17,07,0.60
2011,06,24,17,08,1.40
2011,06,24,17,09,1.00
2011,06,24,17,10,1.40
2011,06,24,17,11,0.30
2011,06,24,17,12,0.00
2011,06,24,17,13,0.00
2011,06,24,17,14,0.00
2011,06,24,17,15,0.00
2011,06,24,17,16,0.00
2011,06,24,17,17,0.00
2011,06,24,17,18,0.10
2011,06,24,17,19,0.00
2011,06,24,17,20,2.10
2011,06,24,17,21,2.50
2011,06,24,17,22,5.70
2011,06,24,17,23,4.90
2011,06,24,17,24,3.30
2011,06,24,17,25,0.70
2011,06,24,17,26,3.40
2011,06,24,17,27,3.80
2011,06,24,17,28,3.60
2011,06,24,17,29,4.30
2011,06,24,17,30,4.20
2011,06,24,17,31,2.30
2011,06,24,17,32,4.20
2011,06,24,17,33,4.90
2011,06,24,17,34,5.30
2011,06,24,17,35,3.70
2011,06,24,17,36,3.90
2011,06,24,17,37,4.10
2011,06,24,17,38,5.30
2011,06,24,17,39,2.70
2011,06,24,17,40,3.90
2011,06,24,17,41,5.40
2011,06,24,17,42,4.10
2011,06,24,17,43,5.20
2011,06,24,17,44,5.60
2011,06,24,17,45,4.30
2011,06,24,17,46,3.40
2011,06,24,17,47,4.60
2011,06,24,17,48,5.00
2011,06,24,17,49,2.10
2011,06,24,17,50,1.00
2011,06,24,17,51,0.00
2011,06,24,17,52,0.00
2011,06,24,17,53,0.30
2011,06,24,17,54,0.60
2011,06,24,17,55,0.10
2011,06,24,17,56,2.10
2011,06,24,17,57,2.60
2011,06,24,17,58,0.60
2011,06,24,17,59,3.40
2011,06,24,18,00,3.10